STARLINK-1294 (45551 NORAD) Tracking and Keplerian Element Data

This shows tracking and keplerian element data for the satellite.

Feedback or suggestion? Click here.




ElementValue
Catalog45551
NameSTARLINK-1294
Epoch Orbit176
Epoch Day188.91667824
Epoch Year2020
RAAN30.4788
Inclination52.9973
Eccentricity0.0001066
Argument of Perigee85.105
Mean Anonmoly230.6115
Mean Motion15.5159097
Decay Rate-0.01135025
L11 45551U 20025W 20188.91667824 -.01135025 00000-0 -20864-1 0 9991
L22 45551 52.9973 30.4788 0001066 85.1050 230.6115 15.51590970 1763

Live tracking and technical data element details for STARLINK-1294 (NORAD 45551). STARLINK-1294 can be tracked NOW for your location showing map with azimuth and elevation plus other details from your city location.

Track the satellite on the map from your city or location and see movement details for azimuth, elevation, latitude, longitude, range, height, and movement on the map or in text.







IsCatalogInMostPopularTable: catalog: 45551, numindb: 22
Update: records affected: 1



GetName: 45551 STARLINK-1294

Hit Count: updated at: Wed, 08 Jul 2020 05:32:42 GMT